Retour au catalogue

ATLAS 5 CENTAUR DEB

ActifHEO
NORAD 43972·DEBRIS·🇺🇸 United States

Lancé Sep 17, 2014 depuis Cape Canaveral Space Force Station

Loading…

Prochains Passages (prochaines 24 heures)

TLE

VieillissantSource: Space-Track

Époque: Aug 26, 2026, 09:35 UTC

1 43972U 14055AB  26238.39962630 -.00000108  00000-0  00000-0 0  9999
2 43972  20.2029 137.1039 4743786 175.7182 190.5293  1.85390759 54023

Suivez ATLAS 5 CENTAUR DEB en temps réel avec AllMySat

Download on the App Store